Regional Weather Roundup
Issued by NWS State College, PA

Home | Current Version | Previous Version | Graphics & Text | Print | Product List | Glossary Off
Versions: 1 2 3 4 5 6 7 8 9 10 11 12 13 14 15 16 17 18 19 20 21 22 23 24 25 26 27 28 29 30 31 32 33 34 35 36 37 38 39 40 41 42 43 44 45 46 47 48 49 50

000
ASUS41 KCTP 290610
RWRCTP

REGIONAL WEATHER ROUNDUP
NATIONAL WEATHER SERVICE STATE COLLEGE PA
200 AM EDT SUN MAY 29 2016

Note: "fair" indicates few or no clouds below 12,000 feet with no
significant weather and/or obstructions to visibility.

* = STATION THAT DOES NOT REPORT PRECIPITATION /E.G. RAIN...SNOW...ETC/
    THUNDER OR FOG.

PAZ002>004-007>009-013>016-020>023-029>032-290700-
WESTERN PENNSYLVANIA

CITY           SKY/WX    TMP DP  RH WIND       PRES   REMARKS
ERIE           MOCLDY    72  67  84 S8        30.08F
MEADVILLE      PTCLDY    65  65 100 CALM      30.12F
FRANKLIN*      PTCLDY    64  61  88 CALM      30.15S
NEW CASTLE     FAIR      65  63  93 CALM      30.12S
BEAVER COUNTY  NOT AVBL
BUTLER*        CLEAR     68  63  83 CALM      30.14F
PITTSBURGH INT PTCLDY    72  65  78 CALM      30.11F
PITTSBURGH     MOCLDY    72  62  71 SE3       30.11F
INDIANA*       CLOUDY    66  66 100 CALM      30.16F FOG
LATROBE        FOG       64  64 100 CALM      30.12F VSB 3/4
WASHINGTON CO* CLEAR     64  61  88 CALM      30.12F
$$

PAZ004>006-010>012-017>019-024>028-033>037-041-042-045-046-049>053-290700-
CENTRAL PENNSYLVANIA

CITY           SKY/WX    TMP DP  RH WIND       PRES   REMARKS
BRADFORD       PTCLDY    62  61  96 SE3       30.17S FOG
DUBOIS         MOCLDY    70  64  81 CALM      30.14F
CLEARFIELD     CLEAR     68  64  87 CALM      30.15S
JOHNSTOWN      CLEAR     70  59  68 S8        30.16F
ALTOONA        CLEAR     66  61  84 CALM      30.15F
STATE COLLEGE  CLEAR     73  64  73 W5        30.13F
WILLIAMSPORT   PTCLDY    71  66  84 CALM      30.10S
SELINSGROVE    CLEAR     74  67  78 CALM      30.12S
FT INDIANTOWN  PTCLDY    67  67 100 NE1       30.14S
CAPITAL CITY   CLOUDY    73  64  73 S3        30.13S
HARRISBURG     CLEAR     71  63  75 VRB3      30.12F
YORK           CLEAR     67  62  84 CALM      30.14S
$$

PAZ038>040-043-044-047-048-054-055-060>062-067>071-290700-
EASTERN PENNSYLVANIA

CITY           SKY/WX    TMP DP  RH WIND       PRES   REMARKS
SCRANTON       CLEAR     74  66  76 S5        30.14S
MOUNT POCONO   CLEAR     66  63  90 W5        30.19S
ALLENTOWN      CLEAR     74  63  68 CALM      30.14S
QUAKERTOWN*    CLEAR     72  64  78 SW3       30.16S
READING        CLEAR     73  57  57 S6        30.13S
LANCASTER      PTCLDY    70  55  59 CALM      30.14F
COATESVILLE    CLOUDY    70  54  56 CALM      30.18S
POTTSTOWN      CLOUDY    73  53  49 SW6       30.16S
BLUE BELL      CLEAR     70  55  60 SW6       30.15S
DOYLESTOWN     CLEAR     71  61  70 VRB5      30.15R
WILLOW GROVE   NOT AVBL
NORTH PHILA    CLEAR     73  59  61 SW5       30.16S
PHILADELPHIA   PTCLDY    70  59  68 S7        30.16R
$$




USA.gov is the U.S. government's official web portal to all federal, state and local government web resources and services.